Regional Weather Roundup
Issued by NWS

Home | Current Version | Previous Version | Text Only | Print | Product List | Glossary On
Versions: 1 2 3 4 5 6 7 8 9 10 11 12 13 14 15 16 17 18 19 20 21 22 23 24 25 26 27 28 29 30 31 32 33 34 35 36 37 38 39 40 41 42 43 44 45 46 47 48 49 50
186
ASUS44 KLIX 290101
RWRLA
LOUISIANA WEATHER ROUNDUP
NATIONAL WEATHER SERVICE NEW ORLEANS LA
800 PM CDT THU AUG 28 2014

NOTE: "FAIR" INDICATES FEW OR NO CLOUDS BELOW 12,000 FEET WITH NO
      SIGNIFICANT WEATHER AND/OR OBSTRUCTIONS TO VISIBILITY.
      SKY/WX - SKY CONDITION AND SIGNIFICANT WEATHER.
      TMP - AIR TEMPERATURE.    DP   - DEWPOINT TEMPERATURE.
      RH  - RELATIVE HUMIDITY.  PRES - PRESSURE.
      HX  - HEAT INDEX.         WCI  - WIND CHILL INDEX.

*  THESE STATIONS ARE NOT NWS OR FAA STATIONS AND ARE NOT UNDER
   NWS QUALITY CONTROL.

LAZ040-048-061>063-065-066-069-290200-
SOUTHEAST LOUISIANA

CITY           SKY/WX    TMP DP  RH WIND       PRES   REMARKS
N.O. AUDUBON     N/A     85  73  67 MISG        N/A
N.O. INTL ARPT MOCLDY    84  71  65 SE8       29.93R
N.O. LAKEFRONT PTCLDY    84  72  67 SE7       29.93R
N.O. DOWNTOWN* FAIR      84  70  61 SE6       29.94R
SLIDELL        PTCLDY    81  74  79 SE3       29.93R
BATON ROUGE    CLOUDY    81  75  82 E5        29.92R
BOOTHVILLE     CLEAR     84  74  71 E7        29.93S
BELLE CHASSE   MOCLDY    83  72  69 E6        29.92R
BOGALUSA*      NOT AVBL
GALLIANO*      NOT AVBL
NEW ROADS*     FAIR      82  74  77 E5        29.92R
GONZALES*      FAIR      83  80  90 CALM      29.92R
HAMMOND*       NOT AVBL
HOUMA*         CLEAR     81  71  70 E5        29.92R
PORT FOURCHON* PTCLDY    86  72  62 E10G17    29.94R

$$

LAZ041-044-053-054-290200-
SOUTHWEST LOUISIANA

CITY           SKY/WX    TMP DP  RH WIND       PRES   REMARKS
LAKE CHARLES   MOCLDY    82  76  81 SE5       29.91R
LAFAYETTE      MOCLDY    79  75  87 CALM      29.92S
PATTERSON      PTCLDY    81  75  83 SE3       29.95R
SALT POINT       N/A     84  76  76 E5        29.91R
NEW IBERIA     MOCLDY    81  76  84 CALM      29.92R
CHENAULT AIRPK CLEAR     81  73  78 SE5       29.91F

$$

LAZ027-028-290200-
CENTRAL LOUISIANA

CITY           SKY/WX    TMP DP  RH WIND       PRES   REMARKS
FORT POLK      PTCLDY    81  71  71 S5        29.90F
ALEXANDRIA INT CLOUDY    81  71  71 CALM      29.89R
ALEXANDRIA     MOCLDY    81  75  82 CALM      29.91S

$$

LAZ001-002-290200-
NORTHWEST LOUISIANA

CITY           SKY/WX    TMP DP  RH WIND       PRES   REMARKS
SHREVEPORT     PTCLDY    86  69  56 S7        29.88R
BARKSDALE AFB  PTCLDY    83  71  66 SE5       29.88S
DTN SHREVEPORT MOCLDY    78  75  90 CALM      29.88R

$$

LAZ014-016-290200-
NORTHEAST LOUISIANA

CITY           SKY/WX    TMP DP  RH WIND       PRES   REMARKS
MONROE         PTCLDY    81  72  74 E3        29.91F
TALLULAH       CLOUDY    77  74  90 CALM      29.92F

$$




USA.gov is the U.S. government's official web portal to all federal, state and local government web resources and services.